7 * 24
多渠道服务支持
STARLINK-37192(NORAD编号68342)是美国太空探索技术公司(SpaceX)星链(Starlink)低轨互联网星座中的一颗卫星,隶属于全球覆盖的星链通信网络项目。星链计划最终计划部署4.2万颗近地轨道卫星,旨在为全球提供高速低时延互联网接入服务。该卫星配备氩气离子推进系统用于轨道机动与脱轨,采用多频段相控阵天线实现高带宽通信,搭载太阳能供电系统与星跟踪导航设备,作为星链星座的组成部分,为消费端及特殊用户提供稳定的天基通信支持。
美国
(US)
| 数据来源 | 国际轨道数据 |
| 星历时间: | 2026-04-14T20:00:02+0800 5小时前 查看轨道信息 |
| 半长轴: | 6795.877km |
| 偏心率: | 0.0000878 |
| 轨道倾角: | 53.160° |
| 近地点辐角 | 51.925° |
| 升交点赤经 | 184.056° |
| 平近点角 | 136.935° |
| 近地点: | 417.143km |
| 远地点: | 418.337km |
| 周期: | 92.924分钟 |
| 每日圈数: | 15.496533 |